[[{"header":{"parameterUnit":"m.s-1","parameterCategory":1,"la1":30.2991,"la2":30.254,"lo1":-89.0895,"lo2":-89.0444,"dy":0.0017,"dx":0.0017,"nx":28,"ny":28,"refTime":"2024-03-26T09:00:00:Z","depth":0,"parameterNumber":2,"parameterNumberName":"U-component_of_WINDS"},"data":[0,0,0,0,0,0,0,0,0,0,0,0,0,0,0,0,0,0,0,0,0,0,0,0,0,0,0,0,0,0,0,0,0,0,0,0,0,0,0,0,0,0,0,0,0,0,0,0,0,0,0,0,0,0,0,0,0,0,0.4537,0.4537,0,0.456,0.456,0.456,0.4581,0.4581,0.4582,0.4582,0.4605,0.4606,0.4606,0,0,0,0,0,0,0,0,0,0,0,0,0,0.451,0.4511,0.4537,0.4537,0.4537,0.456,0.456,0.4561,0.4581,0.4581,0.4582,0.4582,0.4605,0.4606,0.4606,0,0,0,0,0,0,0,0,0,0,0,0,0,0.4526,0.4511,0.4536,0.455,0.4552,0.456,0.456,0.4561,0.4581,0.4581,0.4582,0.4582,0.4605,0.4606,0.4606,0.4603,0,0,0.4608,0.4608,0,0,0,0,0,0,0,0,0.4526,0.4527,0.4548,0.4549,0.4551,0.4568,0.456,0.4575,0.4581,0.457,0.4582,0.4582,0.4593,0.4594,0.4598,0.4604,0.4605,0.4608,0.4609,0.4609,0.4609,0,0,0,0,0,0,0,0.4524,0.4527,0.4546,0.4548,0.455,0.4555,0.4558,0.4563,0.4579,0.4571,0.4572,0.4575,0.4594,0.4597,0.4599,0.4605,0.4608,0.4609,0.4609,0.4609,0.4611,0.461,0,0,0,0,0,0,0.4521,0.4525,0.4545,0.4547,0.4539,0.4555,0.4558,0.4562,0.4579,0.4582,0.4575,0.4576,0.4596,0.4598,0.46,0.4597,0.4609,0.4609,0.461,0.4611,0.4611,0.461,0,0,0,0,0,0,0.452,0.4523,0.4544,0.4536,0.454,0.4556,0.4559,0.4562,0.4566,0.4582,0.4585,0.4575,0.4596,0.4599,0.4602,0.4598,0.461,0.461,0.4611,0.4611,0.461,0.4591,0,0,0,0,0,0,0.452,0.4522,0.4521,0.4536,0.454,0.4546,0.4559,0.4563,0.4567,0.4569,0.4583,0.4586,0.4597,0.4601,0.4603,0.4599,0.4611,0.4612,0.4611,0.4611,0.4592,0.459,0.4588,0,0,0,0,0,0.4519,0.4514,0.4521,0.4523,0.4538,0.4546,0.4548,0.456,0.4567,0.4566,0.4576,0.4585,0.4598,0.4601,0.4603,0.46,0.4612,0.4611,0.4611,0.4593,0.4591,0.4588,0,0,0,0,0,0,0.4498,0.4517,0.4524,0.4524,0.4533,0.4549,0.4548,0.4557,0.4564,0.4566,0.4581,0.4584,0.4586,0.4593,0.4596,0.4598,0.4607,0.4606,0.4593,0.459,0.4588,0.4586,0.4611,0,0,0,0,0,0.4493,0.4497,0.4514,0.4513,0.4517,0.4532,0.4535,0.4544,0.4554,0.4558,0.4569,0.4578,0.4584,0.4588,0.4594,0.4594,0.4597,0.4593,0.4591,0.4589,0.4588,0.4589,0.4587,0.4608,0.4608,0.4608,0,0,0.4484,0.4495,0.4496,0.4509,0.4517,0.4521,0.4535,0.4538,0.4542,0.4559,0.4562,0.4571,0.4582,0.4584,0.4585,0.459,0.4583,0.4588,0.4586,0.4587,0.4588,0.4586,0.4584,0.4607,0.4607,0.4608,0,0,0.4469,0.4477,0.4478,0.4486,0.4498,0.4508,0.4508,0.4523,0.4529,0.4533,0.4546,0.4551,0.4561,0.4569,0.4574,0.4563,0.4573,0.4565,0.4554,0.4555,0.4553,0.4552,0.4548,0.4547,0.4564,0.4564,0.4564,0,0.4455,0.4462,0.4476,0.448,0.4485,0.4501,0.4502,0.4509,0.4522,0.4526,0.4531,0.4545,0.4554,0.4558,0.4555,0.4559,0.456,0.4563,0.4552,0.4551,0.455,0.4547,0.4545,0.4563,0.4564,0.4564,0.4564,0,0.4445,0.445,0.4448,0.4461,0.4467,0.4468,0.4484,0.4487,0.4496,0.4506,0.4511,0.4522,0.4531,0.4533,0.4542,0.4539,0.4541,0.4549,0.4559,0.4547,0.4544,0.4543,0.4562,0.4562,0.4563,0.4563,0,0,0.4416,0.4438,0.4437,0.4444,0.4459,0.4463,0.4466,0.4475,0.4478,0.4488,0.449,0.4499,0.4507,0.4513,0.4523,0.4524,0.4515,0.4532,0.4533,0.4528,0.4512,0.4506,0.4504,0.4522,0.4522,0.4522,0.4511,0,0.4403,0.4409,0.4423,0.4424,0.4429,0.4445,0.4448,0.4458,0.4467,0.4473,0.4484,0.449,0.4499,0.4503,0.4505,0.4516,0.4512,0.4517,0.4525,0.4525,0.4521,0.4502,0.4495,0.4485,0.451,0.451,0.451,0,0.4388,0.4397,0.4399,0.4415,0.4417,0.4419,0.443,0.4435,0.4447,0.4454,0.4461,0.4472,0.4477,0.4486,0.4493,0.4496,0.45,0.4506,0.4506,0.4506,0.4516,0.4502,0.4482,0.448,0.4508,0.4508,0.4509,0,0.4366,0.4379,0.4382,0.4387,0.4405,0.4406,0.4414,0.4427,0.4432,0.4441,0.4445,0.4454,0.4459,0.4467,0.4481,0.4486,0.4486,0.4496,0.4492,0.4491,0.449,0.449,0.447,0.4494,0.4494,0.4494,0.4494,0,0.435,0.4351,0.4372,0.4374,0.4375,0.4392,0.4393,0.4402,0.4413,0.4418,0.4433,0.4436,0.4455,0.4461,0.4472,0.4476,0.4478,0.4484,0.4487,0.4482,0.4481,0.4484,0.4485,0.4493,0.4494,0.4494,0.4494,0,0.4325,0.434,0.4344,0.4362,0.4366,0.4367,0.4382,0.4384,0.4396,0.4401,0.4403,0.442,0.4428,0.4443,0.4455,0.4463,0.4464,0.4469,0.446,0.4462,0.4456,0.4456,0.4437,0.4435,0.4461,0.4461,0.446,0,0.4313,0.4314,0.4332,0.4336,0.4344,0.435,0.4355,0.4372,0.4377,0.4391,0.4392,0.4402,0.441,0.4422,0.4436,0.4445,0.4451,0.4443,0.4452,0.4448,0.445,0.445,0.445,0.4441,0.444,0.444,0.444,0,0.4291,0.4298,0.4305,0.4316,0.4322,0.4331,0.434,0.4343,0.4361,0.4367,0.4375,0.4382,0.4394,0.4403,0.4415,0.4424,0.4435,0.4437,0.4437,0.4432,0.4426,0.4429,0.4454,0.4437,0.4438,0.4438,0.4438,0.4438,0.4272,0.4274,0.4287,0.4295,0.4304,0.4313,0.4316,0.4328,0.4335,0.4347,0.4357,0.4364,0.4377,0.4395,0.4403,0.4409,0.4414,0.4414,0.4413,0.4413,0.4411,0.4426,0.4412,0.4412,0.4412,0.4412,0.4412,0,0.425,0.4259,0.4266,0.4279,0.4286,0.4296,0.4308,0.4313,0.4319,0.4331,0.4339,0.4349,0.4358,0.4373,0.4384,0.4386,0.4392,0.4388,0.4388,0.439,0.4406,0.4405,0.4384,0.4384,0.4384,0.4384,0.4384,0.4384,0.4239,0.4242,0.4251,0.426,0.427,0.4278,0.4283,0.4292,0.4301,0.4312,0.4319,0.4329,0.4342,0.4354,0.4364,0.4368,0.4371,0.4366,0.4372,0.4386,0.4389,0.4391,0.439,0.4367,0.4367,0.4355,0.4355,0.4355]},{"header":{"parameterUnit":"m.s-1","parameterCategory":1,"la1":30.2991,"la2":30.254,"lo1":-89.0895,"lo2":-89.0444,"dy":0.0017,"dx":0.0017,"nx":28,"ny":28,"refTime":"2024-03-26T09:00:00:Z","depth":0,"parameterNumber":3,"parameterNumberName":"V-component_of_WINDS"},"data":[0,0,0,0,0,0,0,0,0,0,0,0,0,0,0,0,0,0,0,0,0,0,0,0,0,0,0,0,0,0,0,0,0,0,0,0,0,0,0,0,0,0,0,0,0,0,0,0,0,0,0,0,0,0,0,0,0,0,-3.5825,-3.5826,0,-3.5862,-3.5862,-3.5863,-3.584,-3.5839,-3.5838,-3.5837,-3.5874,-3.5876,-3.5878,0,0,0,0,0,0,0,0,0,0,0,0,0,-3.5738,-3.5739,-3.5825,-3.5826,-3.5826,-3.5862,-3.5862,-3.5863,-3.584,-3.5839,-3.5838,-3.5836,-3.5873,-3.5876,-3.5878,0,0,0,0,0,0,0,0,0,0,0,0,0,-3.5775,-3.574,-3.5825,-3.5819,-3.5819,-3.5862,-3.5862,-3.5863,-3.5841,-3.5839,-3.5837,-3.5836,-3.5873,-3.5875,-3.5878,-3.5929,0,0,-3.5888,-3.5889,0,0,0,0,0,0,0,0,-3.5773,-3.5778,-3.582,-3.582,-3.582,-3.5845,-3.5845,-3.5885,-3.5841,-3.5832,-3.5837,-3.5835,-3.5866,-3.5869,-3.5879,-3.593,-3.5932,-3.5888,-3.589,-3.5891,-3.5892,0,0,0,0,0,0,0,-3.577,-3.5777,-3.584,-3.582,-3.582,-3.5815,-3.5819,-3.5852,-3.5858,-3.5833,-3.5831,-3.5836,-3.5865,-3.5877,-3.588,-3.5933,-3.5888,-3.589,-3.5892,-3.5893,-3.6029,-3.6031,0,0,0,0,0,0,-3.5768,-3.5775,-3.5839,-3.5841,-3.5792,-3.5818,-3.5822,-3.5838,-3.5857,-3.5858,-3.5837,-3.5835,-3.5872,-3.5877,-3.5881,-3.5943,-3.5891,-3.5894,-3.5895,-3.6027,-3.6029,-3.6031,0,0,0,0,0,0,-3.5766,-3.5774,-3.5837,-3.5807,-3.5815,-3.5821,-3.584,-3.584,-3.5851,-3.586,-3.5861,-3.5848,-3.5871,-3.5877,-3.5918,-3.5944,-3.5895,-3.5898,-3.6025,-3.6028,-3.603,-3.6065,0,0,0,0,0,0,-3.5764,-3.5774,-3.5792,-3.5808,-3.5817,-3.5873,-3.5841,-3.5842,-3.5856,-3.5853,-3.5871,-3.5872,-3.587,-3.5913,-3.5921,-3.5947,-3.59,-3.6023,-3.6026,-3.6029,-3.6062,-3.6069,-3.6075,0,0,0,0,0,-3.5761,-3.58,-3.5793,-3.5801,-3.584,-3.5874,-3.5879,-3.5877,-3.5859,-3.5878,-3.5884,-3.5871,-3.594,-3.5918,-3.5926,-3.5953,-3.6021,-3.6025,-3.6029,-3.6059,-3.6067,-3.6075,0,0,0,0,0,0,-3.5787,-3.5802,-3.5795,-3.584,-3.5856,-3.587,-3.5894,-3.5886,-3.5907,-3.5903,-3.5899,-3.5903,-3.5946,-3.5953,-3.5929,-3.6004,-3.5977,-3.5983,-3.5997,-3.6005,-3.6012,-3.6009,-3.5902,0,0,0,0,0,-3.5798,-3.5824,-3.5836,-3.5875,-3.5884,-3.5888,-3.5902,-3.5899,-3.5916,-3.5922,-3.5931,-3.5948,-3.5973,-3.599,-3.6013,-3.6063,-3.6067,-3.6086,-3.6092,-3.6098,-3.6103,-3.6131,-3.614,-3.6045,-3.6045,-3.6045,0,0,-3.5821,-3.5833,-3.5849,-3.5881,-3.5893,-3.592,-3.5893,-3.5923,-3.5944,-3.5927,-3.5966,-3.5973,-3.5991,-3.6037,-3.6058,-3.6045,-3.613,-3.6103,-3.6107,-3.6109,-3.6136,-3.6145,-3.6153,-3.6047,-3.6047,-3.6047,0,0,-3.5878,-3.5889,-3.5923,-3.5936,-3.5955,-3.5958,-3.5966,-3.5982,-3.5986,-3.6026,-3.6014,-3.6038,-3.6081,-3.6095,-3.6108,-3.6172,-3.6162,-3.618,-3.6214,-3.6242,-3.6249,-3.6256,-3.628,-3.6288,-3.6185,-3.6185,-3.6185,0,-3.5904,-3.5945,-3.5942,-3.5973,-3.5988,-3.5974,-3.601,-3.6022,-3.6048,-3.6059,-3.6044,-3.6099,-3.611,-3.616,-3.6176,-3.6186,-3.6196,-3.6178,-3.6248,-3.6255,-3.6261,-3.6284,-3.6293,-3.6187,-3.6187,-3.6187,-3.6187,0,-3.5977,-3.6006,-3.6031,-3.6057,-3.6075,-3.6108,-3.6111,-3.6129,-3.6125,-3.613,-3.6171,-3.6184,-3.6211,-3.6222,-3.6218,-3.6272,-3.6263,-3.6249,-3.6222,-3.6272,-3.6294,-3.6302,-3.619,-3.619,-3.6189,-3.6188,0,0,-3.605,-3.6075,-3.6084,-3.6096,-3.6117,-3.6139,-3.6173,-3.6199,-3.6216,-3.6234,-3.6262,-3.63,-3.6288,-3.6302,-3.63,-3.6324,-3.6375,-3.6306,-3.6307,-3.6319,-3.6437,-3.6448,-3.6458,-3.6369,-3.637,-3.6371,-3.6436,0,-3.6108,-3.6166,-3.6165,-3.6219,-3.6246,-3.6235,-3.6264,-3.628,-3.6286,-3.631,-3.6316,-3.6344,-3.6324,-3.6333,-3.6356,-3.6364,-3.6399,-3.6359,-3.6396,-3.6397,-3.6392,-3.6469,-3.6481,-3.6541,-3.6444,-3.6445,-3.6446,0,-3.6183,-3.6205,-3.6262,-3.628,-3.6292,-3.6318,-3.6343,-3.6366,-3.6385,-3.6388,-3.6405,-3.6399,-3.6434,-3.6407,-3.6455,-3.6429,-3.6443,-3.645,-3.6452,-3.6455,-3.6425,-3.6475,-3.6559,-3.6569,-3.6459,-3.6458,-3.6457,0,-3.6232,-3.6275,-3.6316,-3.6326,-3.6348,-3.6367,-3.6377,-3.6394,-3.6411,-3.6433,-3.6444,-3.647,-3.6485,-3.6505,-3.6507,-3.6487,-3.6557,-3.6529,-3.656,-3.656,-3.6575,-3.6574,-3.6664,-3.6584,-3.6584,-3.6584,-3.6584,0,-3.6297,-3.6333,-3.6338,-3.6363,-3.6403,-3.6402,-3.6442,-3.645,-3.6466,-3.6493,-3.6484,-3.6509,-3.651,-3.6536,-3.6538,-3.6579,-3.6585,-3.6588,-3.6589,-3.659,-3.6589,-3.6599,-3.6595,-3.6586,-3.6586,-3.6585,-3.6585,0,-3.6358,-3.6363,-3.6406,-3.6424,-3.6429,-3.6458,-3.6473,-3.6497,-3.6503,-3.6537,-3.6545,-3.6554,-3.6584,-3.6588,-3.6624,-3.6625,-3.6674,-3.667,-3.6668,-3.6668,-3.6699,-3.6696,-3.6798,-3.6812,-3.6723,-3.6724,-3.6725,0,-3.6399,-3.6427,-3.6448,-3.6465,-3.6477,-3.6505,-3.6522,-3.6523,-3.6541,-3.6566,-3.6587,-3.6617,-3.6641,-3.6691,-3.67,-3.6728,-3.6724,-3.6758,-3.6728,-3.6729,-3.6726,-3.6725,-3.6728,-3.6764,-3.6765,-3.6766,-3.6766,0,-3.6473,-3.6474,-3.65,-3.6527,-3.6548,-3.6569,-3.6589,-3.6604,-3.6607,-3.6629,-3.666,-3.6679,-3.6716,-3.6746,-3.6774,-3.6785,-3.6777,-3.6776,-3.6785,-3.6786,-3.6785,-3.6787,-3.6685,-3.6774,-3.6773,-3.6772,-3.6772,-3.6772,-3.6526,-3.655,-3.6569,-3.6598,-3.6613,-3.6633,-3.6657,-3.6666,-3.6692,-3.6723,-3.6722,-3.6757,-3.6776,-3.6813,-3.6826,-3.6854,-3.6843,-3.6855,-3.6858,-3.6862,-3.6865,-3.678,-3.6859,-3.6858,-3.6858,-3.6858,-3.6858,0,-3.6599,-3.6611,-3.6638,-3.6667,-3.669,-3.6681,-3.6703,-3.6723,-3.6754,-3.6773,-3.6798,-3.6835,-3.6864,-3.6877,-3.6907,-3.6927,-3.6924,-3.6934,-3.6933,-3.6936,-3.6873,-3.6863,-3.6936,-3.6936,-3.6936,-3.6936,-3.6936,-3.6936,-3.664,-3.6681,-3.6686,-3.6735,-3.6747,-3.6781,-3.6795,-3.6813,-3.6828,-3.687,-3.6895,-3.6904,-3.6921,-3.6951,-3.6979,-3.6982,-3.6993,-3.7006,-3.7007,-3.6948,-3.694,-3.6933,-3.6923,-3.7008,-3.7008,-3.7068,-3.7069,-3.7069]}]]